GFSNIL_850_spd_138.txt.gz
Wind_Speed
17 15 15 14 13 14 14 13 12 13 13 14 17 19 18 17 18 20 23 26 24 22
14 17 17 15 15 14 13 13 11 10 11 12 13 13 12 12 13 15 18 18 17 18
15 15 16 13 11 13 13 15 14 12 11 10 14 12 11 10 10 12 12 13 14 17
16 15 15 15 13 10 11 11 10 8 8 8 12 9 9 10 10 11 13 14 15 18
13 14 14 14 14 13 9 6 8 5 6 8 8 9 10 12 12 14 16 16 18 20
11 12 14 13 15 13 11 5 4 6 7 8 9 10 11 12 13 11 9 9 12 12
14 14 13 12 11 11 10 5 2 5 6 6 5 5 5 8 9 9 9 8 6 7
12 13 12 9 7 8 5 3 1 1 3 4 5 5 6 3 2 2 2 2 2 4
13 11 11 10 7 6 5 3 3 3 4 5 5 5 2 4 1 1 2 1 1 2
12 12 10 9 8 6 5 4 4 4 4 4 4 4 2 3 3 2 2 2 3 3
13 13 11 10 9 8 7 6 6 5 5 4 4 3 2 2 2 2 2 2 2 3
14 14 13 11 10 10 9 8 7 7 6 6 5 4 4 3 3 3 4 3 3 3
17 16 14 14 13 12 12 11 10 9 8 7 7 6 5 4 4 4 5 5 5 5
22 19 16 15 15 14 14 13 12 11 10 9 8 8 7 7 6 6 6 6 7 7

GFSNIL_850_spd_141.txt.gz
Wind_Speed
13 14 15 15 14 15 14 12 10 9 9 10 12 15 16 16 18 18 18 18 21 22
13 12 14 14 12 11 12 13 12 11 9 9 11 12 12 13 11 12 13 14 16 18
15 15 15 15 13 11 11 11 12 12 10 9 9 13 11 11 9 9 9 11 11 12
14 14 13 14 14 13 12 8 6 8 7 5 7 9 7 6 6 7 8 9 9 10
13 14 15 15 16 15 13 7 4 6 4 4 7 7 8 10 11 12 14 12 13 13
13 14 14 13 12 12 10 6 2 5 6 7 8 7 9 8 9 10 9 9 8 9
14 14 12 12 11 11 9 6 4 5 5 6 5 5 6 8 7 6 6 6 7 6
14 13 12 10 9 9 8 6 5 5 6 7 7 8 8 6 5 3 3 2 2 1
13 13 12 11 10 8 7 6 6 6 6 5 4 4 4 3 3 2 2 2 1 1
15 13 13 12 11 10 8 7 7 6 6 5 4 4 3 3 2 2 2 2 2 2
17 15 14 14 13 12 11 9 9 8 6 6 5 4 4 3 3 3 3 2 2 2
20 18 17 15 14 14 14 12 10 10 9 8 7 7 6 5 4 3 3 3 3 2
22 22 21 17 16 16 15 14 14 12 11 10 9 9 8 6 6 5 5 4 5 4
25 25 24 22 20 18 18 18 16 15 14 13 12 11 10 8 7 7 7 6 6 6

GFSNIL_850_spd_147.txt.gz
Wind_Speed
16 15 15 15 15 14 15 14 12 12 13 14 14 13 15 18 19 20 19 18 19 21
15 14 12 14 14 14 15 15 13 12 13 14 15 13 13 16 17 15 14 14 15 16
15 15 14 15 16 15 15 15 16 11 11 10 10 9 10 11 10 9 9 12 15 14
16 16 15 15 15 14 13 15 13 7 8 7 6 6 9 10 11 11 11 12 14 13
18 16 16 14 14 13 12 12 8 6 8 8 6 8 11 12 13 13 13 13 13 12
20 18 17 14 13 12 11 10 8 6 7 8 9 10 9 9 11 12 12 12 11 11
21 19 18 16 15 13 12 11 10 9 9 9 8 10 11 11 10 9 9 10 10 10
24 22 20 17 16 15 14 13 13 12 12 12 13 12 12 10 9 9 7 7 6 6
27 26 24 21 19 18 16 15 15 14 14 14 14 12 11 10 9 9 8 8 6 6
29 28 27 24 22 20 19 18 18 17 16 15 15 12 11 11 10 10 10 9 8 7
30 30 30 28 26 23 21 21 20 19 18 17 17 14 13 13 12 11 10 10 9 8
28 31 31 31 29 28 25 24 22 21 21 20 19 17 15 14 14 13 12 11 11 10
23 26 29 30 30 31 29 27 25 24 23 22 20 20 17 17 16 15 14 13 13 12
25 27 27 27 30 31 32 30 29 27 25 24 23 23 20 19 19 18 17 16 15 14

GFSNIL_850_spd_150.txt.gz
Wind_Speed
17 17 17 15 15 15 16 15 12 13 12 12 14 14 12 13 16 18 17 15 15 16
18 18 17 17 17 15 15 16 14 14 13 12 14 12 10 12 13 13 12 10 11 12
20 19 18 17 16 15 15 16 18 15 9 9 10 8 8 9 9 10 10 10 11 13
22 20 19 17 17 16 15 15 15 9 6 5 5 5 8 11 13 13 14 14 13 13
23 22 20 19 17 18 16 14 13 11 8 6 6 8 11 12 13 13 14 15 15 13
24 23 21 20 19 19 17 16 14 12 10 10 10 11 12 12 13 15 14 13 13 13
23 24 23 22 20 20 19 18 16 14 13 12 12 13 13 14 15 14 12 11 10 10
24 24 25 25 23 22 21 19 19 18 17 16 16 16 15 15 13 14 12 11 9 8
23 26 28 28 27 25 23 21 20 20 19 19 18 18 15 15 14 14 13 11 10 10
25 26 28 29 30 29 26 23 22 21 21 20 19 19 16 15 15 15 14 13 12 11
26 28 29 30 32 30 29 28 25 23 22 21 21 20 17 17 17 16 15 14 13 13
28 27 27 30 30 30 30 30 29 26 24 23 21 21 19 19 19 18 17 16 15 14
30 29 28 28 27 27 30 31 30 30 29 26 24 23 22 21 21 21 19 17 16 15
29 28 27 26 27 28 29 31 32 33 32 31 29 26 25 23 23 23 22 21 19 17

GFSNIL_850_spd_153.txt.gz
Wind_Speed
22 21 20 20 18 17 17 17 15 17 16 12 10 12 12 9 9 11 13 12 10 11
23 22 21 20 19 18 17 17 16 18 15 9 8 10 8 8 9 9 9 10 12 13
24 22 21 21 19 20 18 18 16 16 13 7 7 7 5 6 9 10 11 14 14 14
22 22 22 22 19 19 19 18 16 15 13 9 7 7 7 8 10 13 15 16 16 16
21 22 24 22 19 19 18 19 17 15 13 10 9 9 11 11 12 13 14 16 16 15
20 20 21 21 20 20 19 19 18 17 16 14 13 13 12 12 14 15 16 14 13 12
20 21 20 20 21 22 21 20 19 18 18 17 16 16 15 16 17 18 16 15 14 11
20 20 21 22 24 25 25 23 21 21 20 19 18 18 18 18 19 18 16 15 14 12
27 25 25 24 24 26 27 26 25 23 22 21 20 19 18 18 18 18 17 16 15 14
31 30 28 27 26 28 28 27 28 27 25 23 21 21 20 18 19 19 19 17 15 15
28 30 29 30 29 28 28 29 30 29 28 27 24 22 21 20 21 21 20 19 18 17
25 28 30 30 30 29 29 28 28 30 30 30 28 25 24 23 23 23 22 20 19 19
26 26 29 29 29 29 27 27 28 29 30 31 32 29 28 26 25 25 25 23 22 21
30 28 26 24 25 26 27 28 30 31 30 31 32 32 30 30 29 28 26 26 24 22

GFSNIL_850_spd_156.txt.gz
Wind_Speed
21 22 21 20 20 19 18 17 17 17 21 16 11 11 12 10 9 11 10 10 10 10
22 22 20 19 20 19 18 17 17 16 18 14 7 8 9 9 10 10 9 9 11 13
22 21 19 19 20 19 18 18 17 15 15 14 9 9 8 7 8 9 9 12 14 15
21 21 20 21 20 19 19 18 18 16 15 15 12 12 11 10 11 11 12 13 15 16
18 19 20 21 20 21 21 20 19 17 17 16 15 14 14 14 15 14 14 15 16 15
17 18 19 19 19 20 22 22 21 20 19 18 18 17 16 16 16 16 17 17 16 15
18 19 20 21 21 22 22 24 24 22 22 20 20 19 19 19 19 19 19 18 17 15
23 23 24 25 24 23 23 25 26 26 25 23 22 21 20 21 20 21 20 19 17 15
26 28 28 26 26 26 26 25 26 28 28 28 26 23 22 22 22 22 22 20 19 18
28 33 30 26 24 26 27 27 27 27 28 29 28 27 25 24 24 23 23 22 20 20
29 30 27 25 26 26 26 27 27 27 27 28 29 27 27 27 27 26 25 24 22 21
28 28 27 26 25 27 28 27 27 26 25 25 27 27 27 28 29 29 27 26 25 24
28 27 29 29 28 28 26 27 26 25 24 25 26 26 26 28 30 31 30 27 26 27
29 29 27 24 24 23 23 24 24 25 26 27 27 27 27 26 29 32 32 30 28 28

GFSNIL_850_spd_159.txt.gz
Wind_Speed
23 23 23 23 21 20 18 18 18 17 16 17 17 13 11 11 10 10 13 13 10 9
21 22 23 22 22 20 19 18 18 18 17 16 15 14 13 11 9 11 12 11 11 12
20 20 21 22 21 20 19 20 19 18 17 15 14 13 13 12 9 10 11 12 13 13
17 17 19 20 20 20 20 20 21 20 19 18 16 14 13 12 12 14 14 14 14 15
17 17 17 17 18 19 20 21 22 22 22 20 18 17 16 16 15 16 16 16 17 17
19 18 18 18 19 20 21 21 22 24 24 23 22 20 19 19 18 19 19 19 19 19
22 22 23 23 23 23 22 22 22 24 25 25 25 24 22 21 21 21 21 21 21 20
25 25 25 26 27 28 26 25 24 24 25 25 27 26 25 24 23 23 22 22 21 20
26 26 27 29 30 29 28 26 25 26 26 26 26 26 26 26 25 25 25 24 22 21
26 27 27 28 29 27 25 26 26 26 27 28 27 26 26 26 27 27 25 24 24 23
27 28 28 28 27 26 25 26 27 28 27 27 27 25 25 25 27 29 28 26 25 23
26 27 28 29 28 26 27 26 26 26 27 26 26 24 23 24 26 29 30 29 27 26
27 26 27 28 26 25 24 23 22 22 22 23 23 23 23 23 25 28 31 31 30 28
27 27 24 24 23 23 22 22 21 21 20 20 21 22 24 25 26 27 29 31 31 29

GFSNIL_850_spd_162.txt.gz
Wind_Speed
23 24 24 23 22 23 22 20 18 18 18 18 18 16 13 11 10 9 9 11 13 11
20 22 23 22 23 23 22 19 19 19 18 18 18 17 14 11 9 9 9 10 9 10
16 17 19 20 21 21 20 20 21 21 20 19 18 17 16 13 12 12 10 11 12 13
16 17 17 18 18 18 19 19 21 21 22 21 19 18 18 17 15 14 14 14 15 14
20 20 20 20 20 20 20 19 20 22 23 23 22 20 20 19 18 18 17 16 17 16
25 25 25 24 24 24 25 24 24 24 23 23 23 24 23 22 21 20 20 19 19 18
27 26 26 26 26 27 27 29 28 28 27 25 23 25 25 25 24 23 22 21 21 20
27 26 26 26 27 28 29 29 28 28 27 27 26 25 25 26 26 26 24 23 23 22
26 26 26 26 26 26 26 26 25 24 25 26 27 26 25 24 26 27 27 27 25 23
24 24 23 23 24 24 25 25 25 24 24 26 28 26 25 25 25 26 28 28 27 26
23 24 23 24 24 24 24 23 24 24 24 25 25 25 24 24 25 25 27 28 27 27
25 25 25 25 25 24 23 22 21 21 21 22 21 21 21 21 23 25 26 26 27 28
23 23 23 23 22 22 22 21 21 19 19 20 19 18 19 19 21 23 24 25 27 27
20 21 21 21 21 21 21 20 19 19 18 18 18 17 18 19 20 21 23 25 26 27

GFSNIL_850_spd_165.txt.gz
Wind_Speed
16 18 20 20 21 21 21 20 18 19 19 18 18 17 16 15 14 12 9 11 12 14
14 15 16 17 18 18 19 19 19 19 20 19 19 18 16 15 14 14 12 10 11 11
14 16 17 17 17 18 18 18 18 18 19 19 20 19 18 17 15 15 14 13 13 13
18 19 21 21 21 21 21 20 20 20 21 21 21 21 21 20 18 18 17 16 16 15
22 23 24 24 24 24 24 24 24 24 24 24 23 22 23 23 21 21 20 18 19 18
25 25 24 24 24 24 25 25 25 26 27 27 26 25 24 24 24 24 23 21 21 20
25 25 25 25 24 24 24 26 27 27 28 27 27 26 25 24 25 25 25 25 24 22
24 23 22 22 23 23 23 24 25 26 25 25 24 23 23 24 25 25 26 26 26 25
23 22 21 21 21 21 21 22 24 25 25 24 23 22 22 22 24 25 27 27 26 26
22 22 22 22 22 22 22 22 21 21 21 22 22 21 21 22 24 25 26 26 26 25
21 22 22 21 21 21 20 20 20 19 18 19 18 18 18 19 21 23 23 23 24 25
20 20 20 20 20 20 20 19 19 19 18 18 17 17 17 17 17 19 20 21 22 23
18 18 19 19 20 20 20 20 20 18 17 17 17 16 16 15 15 17 17 19 21 23
19 19 18 18 19 19 19 19 18 18 18 17 16 15 15 15 16 16 17 18 19 19